This demonstration page uses our WeatherBlox Daily Observations layout. Learn more.

Left ArrowRight Arrow

31.31129, -92.44514

Hourly Observations for July 21, 2022

Temp ( °F °C ) Dew Point ( °F °C ) Humidity (%) Winds ( mph kmh ) Pressure ( in mb ) Visibility ( mi km ) Precip ( " mm )
12:53 am 00:53 Clear 84 28.9 75 23.9 74 74 SW 7 11 29.91 1013 10 16 0.00 0.00
1:53 am 01:53 Mostly Clear 83 28.3 76 24.4 79 79 SW 8 13 29.90 1013 10 16 0.00 0.00
2:53 am 02:53 Clear 82 27.8 76 24.4 82 82 SW 8 13 29.89 1012 10 16 0.00 0.00
3:53 am 03:53 Clear 82 27.8 76 24.4 82 82 WSW 6 9 29.89 1012 10 16 0.00 0.00
4:53 am 04:53 Clear 81 27.2 76 24.4 85 85 WSW 7 11 29.90 1012 9 14 0.00 0.00
5:53 am 05:53 Clear 81 27.2 76 24.4 85 85 SW 6 9 29.92 1013 10 16 0.00 0.00
6:53 am 06:53 undefined 81 27.2 76 24.4 85 85 WSW 5 7 29.94 1014 8 13 0.00 0.00
7:53 am 07:53 Sunny 83 28.3 76 24.4 79 79 WSW 6 9 29.96 1014 8 13 0.00 0.00
8:53 am 08:53 Sunny 84 28.9 76 24.4 77 77 WSW 6 9 29.97 1015 9 14 0.00 0.00
9:53 am 09:53 Sunny 87 30.6 75 23.9 67 67 W 12 19 29.98 1015 9 14 0.00 0.00
10:42 am 10:42 Mostly Cloudy with Nearby Thunderstorms 90 32.2 75 23.9 62 62 W 13 20 29.98 1015 10 16 0.00 0.00
10:53 am 10:53 Partly Cloudy 90 32.2 74 23.3 59 59 W 10 17 29.99 1016 10 16 0.00 0.00
11:53 am 11:53 Partly Cloudy 87 30.6 74 23.3 65 65 W 10 17 30.00 1016 10 16 0.00 0.00
12:53 pm 12:53 Mostly Cloudy with Light Rain 86 30 75 23.9 70 70 NW 8 13 30.01 1016 9 14 0.00 0.00
1:53 pm 13:53 Mostly Sunny 87 30.6 76 24.4 70 70 W 8 13 29.99 1016 9 14 0.00 0.00
2:53 pm 14:53 Sunny 89 31.7 75 23.9 63 63 W 10 17 29.96 1015 9 14 0.00 0.00
3:53 pm 15:53 Sunny 92 33.3 74 23.3 56 56 W 8 13 29.94 1014 10 16 0.00 0.00
4:53 pm 16:53 Sunny 93 33.9 73 22.8 52 52 WNW 8 13 29.90 1013 10 16 0.00 0.00
5:53 pm 17:53 Sunny 93 33.9 72 22.2 50 50 SW 8 13 29.88 1012 10 16 0.00 0.00
6:53 pm 18:53 Sunny 92 33.3 72 22.2 52 52 Calm 29.91 1013 10 16 0.00 0.00
7:53 pm 19:53 Sunny 89 31.7 74 23.3 61 61 NNW 3 6 29.92 1013 10 16 0.00 0.00
8:53 pm 20:53 Clear 87 30.6 76 24.4 70 70 Calm 29.92 1013 8 13 0.00 0.00
9:53 pm 21:53 Clear 85 29.4 76 24.4 75 75 Calm 29.93 1014 10 16 0.00 0.00
10:53 pm 22:53 Mostly Cloudy 84 28.9 76 24.4 77 77 Calm 29.95 1014 10 16 0.00 0.00
11:53 pm 23:53 Clear 82 27.8 76 24.4 82 82 SSE 5 7 29.96 1014 9 14 0.00 0.00

Powered by AerisWeather